Weather Roundup
Issued by NWS Chicago, IL

Home | Current Version | Previous Version | Graphics & Text | Print | Product List | Glossary On
Versions: 1 2 3 4 5 6 7 8 9 10 11 12 13 14 15 16 17 18 19 20 21 22 23 24 25 26 27 28 29 30 31 32 33 34 35 36 37 38 39 40 41 42 43 44 45 46 47 48 49 50
322
NZUS59 KLOT 091403
HRRLOT

CHICAGO AREA WEATHER ROUNDUP
NATIONAL WEATHER SERVICE CHICAGO/ROMEOVILLE IL
800 AM CST TUE FEB 09 2016

NOTE: "FAIR" INDICATES FEW OR NO CLOUDS BELOW 12,000 FEET WITH NO
SIGNIFICANT WEATHER AND/OR OBSTRUCTIONS TO VISIBILITY.

* THESE STATIONS ARE NOT UNDER NWS QUALITY CONTROL. THEY ALSO MAY NOT
  REPORT WEATHER SUCH AS PRECIPITATION OR FOG.

ILZ005-006-012>014-019>023-091500-
NORTHEAST ILLINOIS

CITY           SKY/WX    TMP DP  RH WIND       PRES   REMARKS
OHARE          LGT SNOW  15  10  80 NW16      29.81R WCI  -1
MIDWAY         FLURRIES  18  11  74 NW14      29.81R WCI   4
AURORA         LGT SNOW  16  10  77 NW15      29.84R WCI   1
LANSING*       FLURRIES  19  13  79 NW9       29.80R WCI   7
WAUKEGAN       LGT SNOW  14   8  77 NW12G20   29.80R WCI   0
DUPAGE AIRPORT LGT SNOW  14   8  77 NW13      29.81R WCI   0
WHEELING       LGT SNOW  15  10  80 NW16G22   29.82R WCI  -1
$$

WIZ051-052-058>065-066-070>072-091500-
SOUTHEAST WISCONSIN

CITY           SKY/WX    TMP DP  RH WIND       PRES   REMARKS
MILWAUKEE      PTCLDY    14   6  70 NW12      29.80R WCI   0
KENOSHA*       CLOUDY    14   7  73 NW14G21   29.80R WCI  -1
RACINE*        CLEAR     13   5  70 NW12      29.81R WCI  -1
BURLINGTON     CLEAR     11   5  78 NW15      29.82R WCI  -6
WAUKESHA       LGT SNOW  10   5  79 NW14      29.81R WCI  -5
$$

INZ001>003-010>013-019-020-091500-
NORTHWEST INDIANA

CITY           SKY/WX    TMP DP  RH WIND       PRES   REMARKS
GARY*          FLURRIES  21  12  68 W17       29.79R WCI   7
MICHIGAN CITY* NOT AVBL
RENSSELAER*    NOT AVBL
VALPARAISO     LGT SNOW  21  17  84 NW14      29.75R WCI   8
$$

LMZ740>746-091500-
SOUTHERN LAKE MICHIGAN

STATION/POSITION TIME  SKY/WX   TEMP WIND        PRES    VSBY
                                AIR  DIR/SP/G
                 (UTC)          (F)  (DEG/KT/KT) (MB)    (MI)
HARRISON CRIB    1300            19  310/ 21/ 24   N/A
BURNHAM HARBOR   1400            18  280/ 12/ 17   N/A
CALUMET HARBOR   1300            18  290/ 11/ 15 1007.9R
BURNS HARBOR     1320            23  310/ 20     1008.1R
MICHIGAN CITY    1300            26  280/ 24/ 26   N/A
$$

ABBREVIATIONS USED IN REMARKS
   TC - TEMPERATURE IN CELSIUS
  WCI - WIND CHILL INDEX
   HX - HEAT INDEX
  VSB - VISIBILITY
$$




USA.gov is the U.S. government's official web portal to all federal, state and local government web resources and services.